Simultaneous Nadir Overpasses (SNOs) Predictions

Prediction of SNOs between METOP-B and NOAA-19 Satellite Orbit:

Table of predicted SNOs for the next 14.0 days since TLE Epoch: 11/8/2013
Index Date (METOP-B) Time (METOP-B) Lat,Lon (METOP-B) SZA (METOP-B ) Date (NOAA-19) Time (NOAA-19) Lat,Lon (NOAA-19) SZA (NOAA-19 ) Distance(km) Time Diff (sec)
1 11/11/2013 23:58:05 -73.78, -5.00 88.63 11/11/2013 23:56:52 -73.78, -5.96 88.62 29.89 73
2 11/12/2013 00:48:49 73.58, 161.85 91.18 11/12/2013 00:47:46 73.57, 161.79 91.18 1.75 63
3 11/12/2013 01:39:32 -73.52, -30.95 88.87 11/12/2013 01:38:51 -73.52, -30.86 88.87 2.95 41
4 11/12/2013 02:30:12 73.51, 136.36 91.13 11/12/2013 02:29:49 73.51, 136.42 91.14 2.01 23
5 11/12/2013 03:20:54 -73.50, -56.33 88.87 11/12/2013 03:20:55 -73.51, -56.35 88.86 1.00 1
6 11/12/2013 04:11:34 73.49, 110.98 91.14 11/12/2013 04:11:53 73.50, 110.93 91.14 1.82 19
7 11/12/2013 05:02:17 -73.44, -81.82 88.91 11/12/2013 05:02:58 -73.45, -81.72 88.91 3.19 41
8 11/12/2013 05:52:57 73.43, 85.49 91.09 11/12/2013 05:53:56 73.44, 85.56 91.10 2.40 59
9 11/12/2013 06:43:45 -73.12,-107.86 89.20 11/12/2013 06:44:56 -73.14,-106.53 89.20 42.75 71
10 11/22/2013 03:14:05 -73.73, -54.10 86.21 11/22/2013 03:12:52 -73.77, -54.86 86.16 23.95 73
11 11/22/2013 04:04:47 73.59, 112.91 93.67 11/22/2013 04:03:46 73.60, 112.81 93.68 3.49 61
12 11/22/2013 04:55:30 -73.57, -79.82 86.36 11/22/2013 04:54:52 -73.56, -79.88 86.36 1.71 38
13 11/22/2013 05:46:10 73.53, 87.42 93.62 11/22/2013 05:45:49 73.54, 87.43 93.63 1.83 21
14 11/22/2013 06:36:53 -73.50,-105.31 86.41 11/22/2013 06:36:55 -73.50,-105.25 86.40 1.96 2
15 11/22/2013 07:27:32 73.51, 62.04 93.62 11/22/2013 07:27:52 73.48, 62.06 93.59 3.17 20
16 11/22/2013 08:18:15 -73.49,-130.69 86.41 11/22/2013 08:18:59 -73.49,-130.74 86.40 1.86 44
17 11/22/2013 09:08:55 73.45, 36.55 93.57 11/22/2013 09:09:56 73.47, 36.57 93.59 3.00 61
18 11/22/2013 09:59:45 -73.07,-156.95 86.79 11/22/2013 10:00:55 -73.09,-155.33 86.80 52.54 70




NCC Satellite Simultaneous Nadir Overpasses (
